Вернуться в каталог

IRIDIUM 33 DEB

АктивенPO
NORAD 34487·DEBRIS·🇺🇸 United States

Запущен Sep 14, 1997 с Baikonur Cosmodrome

Loading…

Ближайшие Пролёты (ближайшие 24 часа)

TLE

СвежийSource: Space-Track

Эпоха: Sep 14, 2026, 10:26 UTC

1 34487U 97051GC  26257.43473927  .00000424  00000-0  11876-3 0  9995
2 34487  86.3377 253.6372 0028792 300.8818 214.8087 14.43561492922255

Отслеживайте IRIDIUM 33 DEB в реальном времени с AllMySat

Download on the App Store